Date_and_time,latitude,longitude,wind_speed,RelWindDirFrom,WindDirFrom,air_pressure,air_temperature,relative_humidity,Temp,platform_speed_wrt_ground,air_pressure_at_mean_sea_level,platform_orientation
2018-05-05 00:00,50.6304683333333,-96.980785,5.6,8.7,69,986.19,5.9,62,5.62,0.0,1013.23,326.3
2018-05-05 00:10,50.6304466666667,-96.98077,5.0,6.9,66,986.26,5.6,62,5.69,0.0,1013.32,326.3
2018-05-05 00:20,50.6304466666667,-96.98076,4.8,6.9,78,986.15,6.3,58,5.70,0.0,1013.18,326.3
2018-05-05 00:30,50.630445,-96.9807583333333,3.3,4.2,86,986.18,7.1,54,5.68,0.0,1013.12,326.3
2018-05-05 00:40,50.6304466666667,-96.9807616666667,3.9,5.9,74,986.31,7.4,51,5.64,0.0,1013.24,326.3
2018-05-05 00:50,50.6304266666667,-96.9807866666667,4.1,5.4,76,986.31,7.8,49,5.58,0.0,1013.29,326.3
2018-05-05 01:00,50.6304416666667,-96.9807683333333,4.2,4.8,81,986.26,8.1,47,5.50,0.0,1013.27,68.5
2018-05-05 01:10,50.6304433333333,-96.9807683333333,3.5,4.8,57,986.25,7.5,50,5.47,0.0,1013.32,68.5
2018-05-05 01:20,50.6304533333333,-96.9807833333333,3.4,4.4,51,986.32,7.4,49,5.44,0.0,1013.46,68.5
2018-05-05 01:30,50.63045,-96.9807716666667,2.8,6.1,33,986.48,7.5,48,5.42,0.0,1013.60,68.5
2018-05-05 01:40,50.6304533333333,-96.9807716666667,3.3,4.2,35,986.43,7.5,48,5.41,0.0,1013.56,68.5
2018-05-05 01:50,50.63045,-96.9807916666667,3.2,3.5,24,986.47,7.2,50,5.41,0.0,1013.64,68.5
2018-05-05 02:00,50.63041,-96.9807733333333,3.2,3.7,17,986.48,7.1,49,5.41,0.0,1013.66,193.3
2018-05-05 02:10,50.6304266666667,-96.9807666666667,3.7,4.5,22,986.30,7.3,49,5.43,0.0,1013.44,193.3
2018-05-05 02:20,50.6304366666667,-96.98077,4.8,5.3,5,986.52,7.2,49,5.46,0.0,1013.63,193.3
2018-05-05 02:30,50.6304383333333,-96.9807516666667,5.0,5.9,10,986.68,7.4,48,5.50,0.0,1013.76,193.3
2018-05-05 02:40,50.6304316666667,-96.98076,5.6,6.3,16,986.71,7.7,48,5.59,0.0,1013.76,193.3
2018-05-05 02:50,50.6304266666667,-96.9807683333333,7.1,8.4,16,986.80,7.7,48,5.63,0.0,1013.84,193.3
2018-05-05 03:00,50.6304216666667,-96.9807683333333,7.8,8.5,13,986.87,7.5,49,5.63,0.0,1013.96,168.0
2018-05-05 03:10,50.6304166666667,-96.9807633333333,7.6,8.2,14,986.98,7.8,47,5.66,0.0,1014.05,168.0
2018-05-05 03:20,50.6304183333333,-96.9807666666667,7.0,8.2,20,986.93,7.8,48,5.69,0.0,1014.00,168.0
2018-05-05 03:30,50.6304183333333,-96.9807683333333,6.3,7.4,22,987.03,6.6,54,5.70,0.0,1014.16,168.0
2018-05-05 03:40,50.630415,-96.9807683333333,8.5,9.9,36,987.04,6.8,52,5.69,0.0,1014.18,168.0
2018-05-05 03:50,50.63038,-96.9808033333333,7.4,9.0,21,987.15,6.7,53,5.69,0.0,1014.30,168.0
2018-05-05 04:00,50.63041,-96.98077,7.1,8.4,16,987.21,6.7,53,5.68,0.0,1014.35,161.1
2018-05-05 04:10,50.6304233333333,-96.9807583333333,5.3,6.4,24,987.14,7.1,52,5.67,0.0,1014.27,161.1
2018-05-05 04:20,50.6304283333333,-96.9807616666667,4.5,5.3,29,987.08,6.4,55,5.67,0.0,1014.22,161.1
2018-05-05 04:30,50.63043,-96.9807616666667,3.6,5.1,34,987.07,5.6,60,5.67,0.0,1014.24,161.1
2018-05-05 04:40,50.630445,-96.9807566666667,2.0,3.3,45,987.14,5.2,62,5.67,0.0,1014.34,161.1
2018-05-05 04:50,50.63044,-96.9807633333333,1.8,3.0,56,987.18,5.3,61,5.65,0.0,1014.37,161.1
2018-05-05 05:00,50.6304383333333,-96.980765,1.9,2.7,21,987.22,5.5,60,5.64,0.0,1014.40,360.0
2018-05-05 05:10,50.6304383333333,-96.9807666666667,2.6,3.3,4,987.17,5.8,57,5.66,0.0,1014.33,360.0
2018-05-05 05:20,50.630435,-96.9807583333333,2.7,3.6,17,987.09,6.4,54,5.67,0.0,1014.27,360.0
2018-05-05 05:30,50.6304383333333,-96.9807533333333,2.7,3.4,29,987.05,7.2,50,5.69,0.0,1014.19,360.0
2018-05-05 05:40,50.6304483333333,-96.980755,3.5,4.6,10,987.17,7.4,50,5.71,0.0,1014.31,360.0
2018-05-05 05:50,50.6304466666667,-96.9807583333333,4.6,5.3,357,987.49,7.5,50,5.72,0.0,1014.63,360.0
2018-05-05 06:00,50.6304466666667,-96.98076,3.8,4.8,1,987.47,8.2,47,5.70,0.0,1014.56,13.3
2018-05-05 06:10,50.630445,-96.9807566666667,4.5,6.2,4,987.47,7.9,49,5.70,0.0,1014.61,13.3
2018-05-05 06:20,50.6304433333333,-96.9807583333333,5.7,7.1,10,987.42,7.7,49,5.70,0.0,1014.60,13.3
2018-05-05 06:30,50.6304333333333,-96.9807866666667,6.4,7.6,15,987.26,7.7,49,5.70,0.0,1014.46,13.3
2018-05-05 06:40,50.630435,-96.980765,7.8,9.3,9,987.26,6.7,54,5.70,0.0,1014.50,13.3
2018-05-05 06:50,50.6304333333333,-96.9807633333333,6.2,7.8,2,987.39,7.2,51,5.65,0.0,1014.60,13.3
2018-05-05 07:00,50.6304216666667,-96.98074,5.1,6.3,8,987.36,7.8,49,5.61,0.0,1014.53,49.4
2018-05-05 07:10,50.6304433333333,-96.9807983333333,5.5,6.9,8,987.32,7.8,49,5.63,0.0,1014.46,49.4
2018-05-05 07:20,50.63043,-96.9807816666667,6.2,7.0,10,987.32,7.5,50,5.64,0.0,1014.42,49.4
2018-05-05 07:30,50.63043,-96.980775,6.9,7.5,11,987.23,7.0,52,5.63,0.0,1014.35,49.4
2018-05-05 07:40,50.6304166666667,-96.9807766666667,7.0,8.1,13,987.34,7.0,51,5.63,0.0,1014.46,49.4
2018-05-05 07:50,50.6304216666667,-96.980775,6.7,7.8,28,987.22,7.1,52,5.64,0.0,1014.30,49.4
2018-05-05 08:00,50.630425,-96.9807733333333,6.1,7.9,26,987.25,6.1,57,5.64,0.0,1014.39,203.5
2018-05-05 08:10,50.630425,-96.98077,6.4,7.6,13,987.47,5.3,59,5.63,0.0,1014.67,203.5
2018-05-05 08:20,50.6304483333333,-96.9808,7.4,8.3,16,987.45,6.4,54,5.62,0.0,1014.59,203.5
2018-05-05 08:30,50.6304283333333,-96.9807683333333,6.7,7.8,17,987.35,6.7,54,5.60,0.0,1014.52,203.5
2018-05-05 08:40,50.6304316666667,-96.98076,5.4,6.6,10,987.51,5.9,57,5.58,0.0,1014.70,203.5
2018-05-05 08:50,50.6304433333333,-96.9807683333333,4.8,6.8,5,987.63,6.4,56,5.58,0.0,1014.77,203.5
2018-05-05 09:00,50.630435,-96.980765,7.6,8.3,16,987.60,6.4,59,5.56,0.0,1014.74,194.5
2018-05-05 09:10,50.630435,-96.980765,6.8,8.5,24,987.44,4.6,67,5.57,0.0,1014.68,194.5
2018-05-05 09:20,50.6304383333333,-96.9807616666667,6.1,7.0,15,987.55,3.5,74,5.57,0.0,1014.88,194.5
2018-05-05 09:30,50.6304383333333,-96.9807583333333,8.4,9.9,17,987.66,3.6,73,5.57,0.0,1014.98,194.5
2018-05-05 09:40,50.6304366666667,-96.980755,8.8,10.2,18,987.74,4.0,72,5.56,0.0,1015.04,194.5
2018-05-05 09:50,50.6304133333333,-96.9807533333333,8.2,8.8,16,987.73,3.9,74,5.55,0.0,1015.09,194.5
2018-05-05 10:00,50.63042,-96.98076,8.4,9.6,19,987.65,3.7,76,5.54,0.0,1015.05,270.0
2018-05-05 10:10,50.6304266666667,-96.9807616666667,9.7,10.5,20,987.69,3.6,75,5.53,0.0,1015.04,270.0
2018-05-05 10:20,50.6304516666667,-96.9807666666667,7.9,9.4,32,987.56,4.1,72,5.52,0.0,1014.86,270.0
2018-05-05 10:30,50.6304316666667,-96.980735,6.8,7.5,21,987.54,3.9,75,5.52,0.0,1014.90,270.0
2018-05-05 10:40,50.63044,-96.9807566666667,6.1,7.1,17,987.55,3.1,80,5.51,0.0,1014.92,270.0
2018-05-05 10:50,50.6304316666667,-96.9807633333333,9.3,11.5,13,987.66,3.2,79,5.51,0.0,1015.03,270.0
2018-05-05 11:00,50.6304333333333,-96.980755,8.4,10.2,10,987.73,4.1,74,5.50,0.0,1015.15,60.8
2018-05-05 11:10,50.6304333333333,-96.9807533333333,7.7,9.7,7,987.72,4.4,73,5.49,0.0,1015.18,60.8
2018-05-05 11:20,50.630435,-96.98075,7.6,10.0,4,987.79,4.9,68,5.48,0.0,1015.21,60.8
2018-05-05 11:30,50.6304466666667,-96.9807566666667,7.6,8.7,6,987.89,5.3,65,5.47,0.0,1015.28,60.8
2018-05-05 11:40,50.6304416666667,-96.9807583333333,8.4,9.9,5,988.04,4.9,69,5.46,0.0,1015.46,60.8
2018-05-05 11:50,50.6304216666667,-96.9807733333333,9.9,12.0,11,988.11,4.3,73,5.44,0.0,1015.57,60.8
2018-05-05 12:00,50.6304266666667,-96.9807616666667,8.6,10.9,7,988.19,4.4,73,5.43,0.0,1015.66,165.5
2018-05-05 12:10,50.6304366666667,-96.98076,8.6,10.1,4,988.37,4.4,74,5.42,0.0,1015.81,165.5
2018-05-05 12:20,50.6304283333333,-96.9807583333333,7.9,9.4,8,988.41,4.7,73,5.41,0.0,1015.85,165.5
2018-05-05 12:30,50.630425,-96.9807566666667,8.9,10.2,6,988.51,4.6,75,5.39,0.0,1016.00,165.5
2018-05-05 12:40,50.6304233333333,-96.9807566666667,9.7,11.2,1,988.69,4.6,75,5.38,0.0,1016.18,165.5
2018-05-05 12:50,50.6304233333333,-96.9807566666667,11.0,13.0,0,988.78,5.2,71,5.37,0.0,1016.20,165.5
2018-05-05 13:00,50.630435,-96.9807533333333,10.6,12.9,3,988.80,5.0,72,5.37,0.0,1016.21,23.5
2018-05-05 13:10,50.6304333333333,-96.9807766666667,12.3,15.5,5,988.87,4.9,73,5.37,0.0,1016.27,23.5
2018-05-05 13:20,50.6304333333333,-96.98077,12.2,15.0,9,988.86,4.6,75,5.36,0.0,1016.25,23.5
2018-05-05 13:30,50.6304366666667,-96.98077,12.1,14.4,8,988.94,4.5,75,5.35,0.0,1016.36,23.5
2018-05-05 13:40,50.6304366666667,-96.9807666666667,11.2,13.1,5,989.06,4.7,74,5.35,0.0,1016.50,23.5
2018-05-05 13:50,50.6304366666667,-96.980765,11.2,13.2,8,989.11,4.7,74,5.35,0.0,1016.55,23.5
2018-05-05 14:00,50.630435,-96.980765,11.3,14.2,10,989.13,4.3,75,5.35,0.0,1016.58,311.7
2018-05-05 14:10,50.630435,-96.980765,10.5,11.9,12,989.18,3.8,79,5.35,0.0,1016.65,311.7
2018-05-05 14:20,50.630435,-96.9807666666667,9.7,11.7,13,989.29,3.2,82,5.36,0.0,1016.80,311.7
2018-05-05 14:30,50.630435,-96.9807633333333,9.7,10.7,14,989.31,3.1,83,5.36,0.0,1016.82,311.7
2018-05-05 14:40,50.6304333333333,-96.9807733333333,9.7,10.7,13,989.37,2.8,85,5.37,0.0,1016.87,311.7
2018-05-05 14:50,50.6304116666667,-96.9807833333333,9.8,11.2,12,989.40,2.9,85,5.37,0.0,1016.91,311.7
2018-05-05 15:00,50.6304233333333,-96.9807633333333,11.1,12.3,13,989.41,3.0,84,5.38,0.0,1016.91,270.0
2018-05-05 15:10,50.6304266666667,-96.9807683333333,11.0,12.9,15,989.47,3.1,84,5.38,0.0,1016.98,270.0
2018-05-05 15:20,50.630425,-96.9807683333333,9.6,10.5,15,989.52,2.6,87,5.40,0.0,1017.06,270.0
2018-05-05 15:30,50.6304233333333,-96.9807666666667,10.0,11.3,15,989.57,2.5,88,5.43,0.0,1017.11,270.0
2018-05-05 15:40,50.6304133333333,-96.9807683333333,9.8,11.1,12,989.69,2.8,86,5.46,0.0,1017.22,270.0
2018-05-05 15:50,50.6304266666667,-96.9807716666667,9.6,11.6,14,989.80,3.4,82,5.48,0.0,1017.33,270.0
2018-05-05 16:00,50.630425,-96.9807683333333,9.3,9.9,18,989.90,3.1,85,5.50,0.0,1017.47,228.3
2018-05-05 16:10,50.6304216666667,-96.9807683333333,9.1,10.1,20,989.86,3.0,85,5.51,0.0,1017.46,228.3
2018-05-05 16:20,50.6304216666667,-96.9807666666667,9.3,9.9,17,989.94,3.1,84,5.52,0.0,1017.55,228.3
2018-05-05 16:30,50.63042,-96.9807683333333,9.4,10.3,19,990.02,3.3,82,5.51,0.0,1017.63,228.3
2018-05-05 16:40,50.6304216666667,-96.9807683333333,10.0,10.7,20,990.02,3.6,79,5.51,0.0,1017.62,228.3
2018-05-05 16:50,50.6304216666667,-96.9807683333333,9.6,10.4,21,990.03,3.6,79,5.55,0.0,1017.61,228.3
2018-05-05 17:00,50.6304233333333,-96.9807683333333,9.8,10.8,16,990.16,3.9,77,5.59,0.0,1017.73,142.0
2018-05-05 17:10,50.6304283333333,-96.9807733333333,11.2,11.8,16,990.29,4.7,69,5.61,0.0,1017.85,142.0
2018-05-05 17:20,50.63043,-96.9807733333333,10.5,11.5,16,990.27,5.3,62,5.63,0.0,1017.81,142.0
2018-05-05 17:30,50.63043,-96.980775,10.0,10.4,13,990.33,5.8,59,5.67,0.0,1017.82,142.0
2018-05-05 17:40,50.6304266666667,-96.980775,9.5,10.5,13,990.33,6.3,59,5.71,0.0,1017.77,142.0
2018-05-05 17:50,50.630425,-96.9807733333333,9.8,11.0,16,990.25,6.4,61,5.75,0.0,1017.70,142.0
2018-05-05 18:00,50.6304233333333,-96.9807716666667,10.9,11.7,15,990.23,6.5,58,5.77,0.0,1017.67,270.0
2018-05-05 18:10,50.630425,-96.98077,10.6,11.6,18,990.14,7.3,51,5.76,0.0,1017.54,270.0
2018-05-05 18:20,50.630425,-96.9807733333333,10.8,11.2,20,990.14,7.4,49,5.79,0.0,1017.53,270.0
2018-05-05 18:30,50.630425,-96.9807733333333,9.9,10.5,19,990.30,7.8,45,5.86,0.0,1017.66,270.0
2018-05-05 18:40,50.63042,-96.9807483333333,10.7,11.2,20,990.44,7.3,47,5.96,0.0,1017.82,270.0
2018-05-05 18:50,50.6304166666667,-96.9807566666667,8.5,10.2,23,990.54,8.1,42,6.09,0.0,1017.88,270.0
2018-05-05 19:00,50.630415,-96.9807666666667,6.6,7.2,24,990.63,8.6,40,6.10,0.0,1017.90,360.0
2018-05-05 19:10,50.6304316666667,-96.9807933333333,6.0,6.6,29,990.57,8.6,38,6.05,0.0,1017.81,360.0
2018-05-05 19:20,50.6304283333333,-96.9807783333333,6.4,7.5,36,990.57,7.8,43,5.95,0.0,1017.82,360.0
2018-05-05 19:30,50.6304116666667,-96.9807933333333,7.8,8.9,30,990.65,5.8,54,5.85,0.0,1017.98,360.0
2018-05-05 19:40,50.6304216666667,-96.980775,6.0,8.3,29,990.79,5.7,50,5.76,0.0,1018.12,360.0
2018-05-05 19:50,50.63044,-96.9807583333333,3.7,4.4,43,990.72,5.9,49,5.67,0.0,1018.04,360.0
2018-05-05 20:00,50.63043,-96.9807483333333,3.9,5.4,40,990.84,6.4,49,5.68,0.0,1018.09,90.0
2018-05-05 20:10,50.63043,-96.9807516666667,8.9,14.8,24,990.75,6.1,53,5.71,0.0,1018.01,90.0
2018-05-05 20:20,50.63043,-96.98075,13.3,15.0,23,990.63,7.0,46,5.71,0.0,1017.82,90.0
2018-05-05 20:30,50.6304183333333,-96.9807566666667,10.7,11.5,26,990.66,7.3,46,5.69,0.0,1017.86,90.0
2018-05-05 20:40,50.630425,-96.9807583333333,9.9,11.4,25,990.65,6.6,50,5.75,0.0,1017.85,90.0
2018-05-05 20:50,50.6304266666667,-96.9807616666667,10.8,11.6,27,990.58,5.9,54,5.86,0.0,1017.79,90.0
2018-05-05 21:00,50.6304383333333,-96.9807883333333,9.4,11.2,30,990.58,6.0,54,5.84,0.0,1017.79,318.8
2018-05-05 21:10,50.6304316666667,-96.9807566666667,7.0,8.1,29,990.59,5.6,57,5.84,0.0,1017.85,318.8
2018-05-05 21:20,50.6304316666667,-96.9807583333333,8.2,9.1,28,990.59,5.5,56,5.91,0.0,1017.96,318.8
2018-05-05 21:30,50.63043,-96.9807583333333,6.6,8.7,30,990.62,5.8,53,5.89,0.0,1017.98,318.8
2018-05-05 21:40,50.6304333333333,-96.9807583333333,3.4,4.9,17,990.65,5.8,54,5.80,0.0,1018.00,318.8
2018-05-05 21:50,50.6304366666667,-96.98076,3.6,5.7,22,990.71,6.3,51,5.73,0.0,1018.01,318.8
2018-05-05 22:00,50.6304366666667,-96.9807616666667,4.4,6.2,36,990.73,6.9,47,5.69,0.0,1018.02,360.0
2018-05-05 22:10,50.6304516666667,-96.9808016666667,7.0,8.0,27,990.70,7.5,44,5.74,0.0,1017.91,360.0
2018-05-05 22:20,50.6304083333333,-96.980785,8.0,8.7,19,990.63,7.3,45,5.91,0.0,1017.84,360.0
2018-05-05 22:30,50.6304233333333,-96.9807516666667,8.4,9.3,18,990.55,7.4,45,5.98,0.0,1017.78,360.0
2018-05-05 22:40,50.6303983333333,-96.9807516666667,8.4,9.2,26,990.54,6.7,48,5.89,0.0,1017.84,360.0
2018-05-05 22:50,50.630435,-96.9807466666667,3.7,7.7,52,990.64,6.2,54,5.78,0.0,1017.97,360.0
2018-05-05 23:00,50.6304333333333,-96.98075,1.8,3.7,82,990.73,6.5,54,5.66,0.0,1018.06,360.0
2018-05-05 23:10,50.6304316666667,-96.9807516666667,3.1,5.0,31,990.69,7.2,49,5.61,0.0,1017.99,360.0
2018-05-05 23:20,50.63043,-96.9807383333333,4.8,5.9,19,990.67,7.0,49,5.55,0.0,1017.96,360.0
2018-05-05 23:30,50.630465,-96.9807666666667,5.2,6.1,19,990.75,7.2,48,5.51,0.0,1018.04,360.0
